FALCON 9 DEB (50854 NORAD) Tracking and Keplerian Element Data

This shows tracking and keplerian element data for the satellite.

Feedback or suggestion? Click here.




ElementValue
Catalog50854
NameFALCON 9 DEB
Epoch Orbit151
Epoch Day16.21464115
Epoch Year2022
RAAN152.4427
Inclination53.2054
Eccentricity0.0049888
Argument of Perigee193.9092
Mean Anonmoly166.0576
Mean Motion16.17008146
Decay Rate0.01826522
L11 50854U 22001BD 22016.21464115 .01826522 11647-4 90140-3 0 9998
L22 50854 53.2054 152.4427 0049888 193.9092 166.0576 16.17008146 1510

Live tracking and technical data element details for FALCON 9 DEB (NORAD 50854). FALCON 9 DEB can be tracked NOW for your location showing map with azimuth and elevation plus other details from your city location.

Track the satellite on the map from your city or location and see movement details for azimuth, elevation, latitude, longitude, range, height, and movement on the map or in text.







IsCatalogInMostPopularTable: catalog: 50854, numindb: 3
Update: records affected: 1



GetName: 50854 FALCON 9 DEB

Hit Count: updated at: Mon, 24 Jan 2022 00:29:39 GMT